SL-16 DEB, 39711

Orbit data source: Space-Track

SL-16 DEB, 39711 is space debris in LEO originally from a launch on Fri, 25 Dec 1992 UTC launched from the Tyuratam Missile And Space Complex (TTMTR). Debris objects in space refer to the collection of defunct objects orbiting the Earth. Examples of debris include non-operational satellites, rocket bodies, and fragments generated from explosions, collisions, or faulty payload assembly.

Loading next visibility...
Identifier
39711, 1992-093KB
Orbit
LEO
Country
Flag of CISCIS
Related business
Manufacturer
Unknown
Mission
Spacecraft
Bus & Motor
Unknown
Mass
Unknown
Launch date (UTC)
1992-12-25 (33 years ago)
Launch vehicle
Unknown
Launch site
Tyuratam Missile And Space Complex (TTMTR)
Object type
Payload
Rocket body
Debris
Shape & HBR
Unknown shape, 0.1 m
Radar Cross Section
Small (<0.1 m²)

Expand to show TLE details & history
Last TLE update: 1 day ago

TLE from 1 day ago
0 SL-16 DEB
1 39711U 92093KB  25348.56516364  .00000582  00000-0  39112-3 0  9996
2 39711  70.8361 285.9040 0095111 217.5431 141.9019 14.02821405596255
Epoch: 2025-12-14T13:33Z
TLE epoch observation values (Epoch: 2025-12-14T13:33:50.138Z)
Latitude
Longitude
-1.03117°
Altitude
941.028 km
Speed
7.354 km/s
True Right ascension
19h 03m 36s
True Declination
0° 00' 00"
Sunlit
Object was in daylight at epoch
Visualization orbit readout
Latitude
Unknown
Longitude
Unknown
Altitude
Unknown
Speed
Unknown
Apparent Right ascension
Unknown
Apparent Declination
Unknown
Sunlit
N/A
Visualization observer readout
Local Sidereal Time
15:10:35
Azimuth
Unknown
Elevation
Unknown
Doppler factor
Unknown
Orbital elements
Apogee altitude
951.046 km
Perigee altitude
812.942 km
Semi-major axis
7,260.131 km
Eccentricity
0.00951
Inclination
70.8361°
RAAN
285.904°
Arg. of periapsis
217.5431°
True anomaly
142.56812°
Mean anomaly
141.9019°
Eccentric anomaly
142.23563°
Mean motion
3.50854 °/min
Orbital period
102.61 mins
BSTAR
0.00039112
Loading maneuver chart data...
Computing Atmospheric mass density...
Loading historical data...
Loading historical data...
Loading historical data...
Loading historical data...
Loading historical data...
Loading historical data...
Loading historical data...

Documentation

Showing up to 5 results
|